星链-34021 (STARLINK-34021)

导读 | 豆包AI

STARLINK-34021是美国太空探索技术公司SpaceX星链(Starlink)项目的卫星,于2025年5月13日由猎鹰9号火箭从肯尼迪航天中心发射升空,属于该次任务搭载的28颗星链卫星之一。星链项目旨在通过近地轨道卫星群为全球提供高速互联网接入,该卫星采用激光星间链路等先进技术,可支持高速数据传输,助力扩展全球网络覆盖范围,进一步完善星链星座的部署规模与服务能力。

Basic Information
目录编号:
63940
目录名称:
STARLINK-34021
国际标识:
2025-098Q
轨道中心:
EARTH
卫星名称:
星链-34021
卫星全名:
星链-34021 (STARLINK-34021)
卫星状态:
在轨 (已飞行351 天)
发射日期:
2025-05-13 UTC
国别 :
美国 (US)
星等 :
--
Orbit Information
数据来源 国际轨道数据 AOE轨道数据
星历时间 2026-04-29T12:49:38+0800
14小时前
查看轨道信息
2026-04-27T08:00:00+0800
2天前
查看轨道信息
半长轴 6950.196km 6950.228km
偏心率 0.0003903 0.0003589
轨道倾角 70.000° 70.000°
近地点辐角 283.795° 273.113°
升交点赤经 147.292° 152.842°
平近点角 76.278° 97.404°
近地点 569.346km 569.596km
远地点 574.772km 574.586km
周期 96.107分钟 96.108分钟
每日圈数 14.983293 14.983187
Detailed Information
固有亮度:
5
最大亮度:
2.5
卫星平台:
Starlink V1.0
覆盖范围:
全球
运营商:
太空探索技术公司
运营商所在国:
美国
制造商(研发单位):
太空探索技术公司
制造商所在国:
美国
使用方式:
暂无
Satellite Introduction
Starlink 计划是 SpaceX 推出的全球卫星互联网项目,通过发射低轨道卫星,为全球尤其是偏远地区提供高速、低延迟的互联网服务。自 2019 年起,Starlink 已部署数千颗卫星,旨在缩小全球数字鸿沟,推动互联网普及。该项目还为军事、航空等行业提供通信支持,带来广泛经济效益。
2D Orbit Map
3D Orbit Map
Orbit Altitude Analysis Chart
Orbit Inclination Analysis Chart
Orbit Comprehensive Analysis Chart
View Comprehensive Chart